This is the latest recevied weather packets stored in our database for station/object KC1HBM. If no packets are shown the sender has not sent any weather packets the latest 10 day(s).
| Time | Temp. | Humidity | Pressure | Rain* | Wind** | Luminosity | Snow |
|---|---|---|---|---|---|---|---|
| 1777577586 | 7.78° C | 99% | 1003.7 hPa | 0 mm | - | 49 W/m² | - |
| 1777577283 | 7.78° C | 99% | 1004 hPa | 0 mm | - | 54 W/m² | - |
| 1777576979 | 7.78° C | 99% | 1004.2 hPa | 0 mm | - | 82 W/m² | - |
| 1777576676 | 7.22° C | 99% | 1004.3 hPa | 0 mm | - | 52 W/m² | - |
| 1777576375 | 7.22° C | 99% | 1004.4 hPa | 0 mm | - | 46 W/m² | - |
| 1777576072 | 7.22° C | 99% | 1004.3 hPa | 1.27 mm | - | 41 W/m² | - |
| 1777575768 | 7.22° C | 99% | 1004.2 hPa | 1.27 mm | - | 39 W/m² | - |
| 1777575464 | 7.22° C | 99% | 1004.4 hPa | 0 mm | - | 32 W/m² | - |
| 1777575160 | 7.22° C | 99% | 1004.2 hPa | 0 mm | - | 42 W/m² | - |
| 1777574856 | 7.22° C | 99% | 1004.3 hPa | 0 mm | - | 45 W/m² | - |
| 1777574554 | 7.22° C | 99% | 1004.4 hPa | 0 mm | - | 45 W/m² | - |
| 1777574250 | 7.22° C | 99% | 1004.7 hPa | 0 mm | - | 36 W/m² | - |
| 1777573945 | 7.78° C | 99% | 1004.9 hPa | 0 mm | - | 40 W/m² | - |
| 1777573640 | 7.22° C | 99% | 1004.7 hPa | 0 mm | - | 64 W/m² | - |
| 1777573337 | 7.22° C | 99% | 1005 hPa | 0 mm | - | 40 W/m² | - |
| 1777573032 | 7.22° C | 99% | 1004.9 hPa | 1.78 mm | - | 31 W/m² | - |
| 1777572729 | 7.22° C | 99% | 1004.8 hPa | 1.78 mm | - | 54 W/m² | - |
| 1777572424 | 7.22° C | 99% | 1004.8 hPa | 0 mm | - | 53 W/m² | - |
| 1777572120 | 7.22° C | 99% | 1005 hPa | 1.78 mm | - | 43 W/m² | - |
| 1777571815 | 7.22° C | 99% | 1005.2 hPa | 1.78 mm | - | 45 W/m² | - |
| 1777571512 | 7.22° C | 99% | 1005.2 hPa | 1.27 mm | - | 52 W/m² | - |
| 1777571208 | 7.22° C | 99% | 1005 hPa | 3.05 mm | - | 39 W/m² | - |
| 1777570904 | 6.67° C | 99% | 1005 hPa | 4.83 mm | - | 19 W/m² | - |
| 1777570599 | 7.22° C | 99% | 1004.8 hPa | 4.32 mm | - | 22 W/m² | - |
| 1777570292 | 7.22° C | 99% | 1005.1 hPa | 3.05 mm | - | 25 W/m² | - |
* Rain latest hour (hover to see other rain measurements)
** Current wind speed in m/s (hover to see current wind gust speed)